Preview of NWS' New Version of Forecast
This preview is not operational and should not be used for support decisions.

Regional Weather Roundup (RWR)

Issued by National Weather Service (NWS)

                            
000
ASUS46 KPQR 210910
RWROR 

OREGON REGIONAL WEATHER ROUNDUP
NATIONAL WEATHER SERVICE PORTLAND OR
200 AM PDT WED AUG 21 2019

NOTE: "FAIR" INDICATES FEW OR NO CLOUDS BELOW 12,000 FEET WITH
NO SIGNIFICANT WEATHER AND/OR OBSTRUCTIONS TO VISIBILITY.

ORZ001>013-211000-
NORTHWEST OREGON

  
CITY           SKY/WX    TMP DP  RH WIND       PRES   REMARKS
ASTORIA        CLOUDY    60  55  83 CALM      29.99F                  
TILLAMOOK      MOCLDY    54  52  94 CALM      30.04S                  
NEWPORT        CLEAR     55  54  94 E6        30.05F                  
FLORENCE       FAIR      55  54  94 CALM      30.04S                  
PORTLAND       CLEAR     63  53  70 S7        30.03S                  
VANCOUVER WA   CLEAR     64  53  67 SE3       30.03R                  
SCAPPOOSE      CLEAR     56  54  93 CALM      30.02R                  
HILLSBORO      CLEAR     53  50  89 CALM      30.03S                  
AURORA         CLEAR     58  52  80 CALM      30.05S                  
MCMINNVILLE    CLEAR     54  51  90 W3        30.03F                  
SALEM          CLEAR     58  52  80 S6        30.03F                  
CORVALLIS      CLEAR     54  52  93 CALM      30.05F                  
EUGENE         CLEAR     55  51  86 S5        30.06S                  
CRESWELL       CLEAR     54  52  94 SE3       30.05F                  
$$

ORZ021-028-211000-
SOUTHWEST OREGON

  
CITY           SKY/WX    TMP DP  RH WIND       PRES   REMARKS
NORTH BEND     PTCLDY    58  55  90 SE8       30.06S                  
BROOKINGS      MOCLDY    56  54  93 CALM      30.07S                  
ROSEBURG       CLEAR     60  53  77 CALM      30.06S                  
SEXTON SUMMIT  CLEAR     61  40  45 W5        30.13F                  
GRANTS PASS    FAIR      59  48  67 CALM      30.09S                  
MEDFORD        CLEAR     67  46  47 NW3       30.05R                  
$$

ORZ014>016-041-211000-
COLUMBIA GORGE

  
CITY           SKY/WX    TMP DP  RH WIND       PRES   REMARKS
TROUTDALE      CLEAR     63  53  70 CALM      30.03S                  
HOOD RIVER     CLEAR     64  52  63 NW5       30.00S                  
THE DALLES     CLEAR     72  52  49 NW17G35   29.95S                  
$$

ORZ029>031-041-044-049-050-061>064-502-503-505>511-211000-
EASTERN OREGON

  
CITY           SKY/WX    TMP DP  RH WIND       PRES   REMARKS
MADRAS         CLEAR     61  50  67 CALM      30.05S                  
REDMOND        CLEAR     61  50  67 CALM      30.05F                  
BEND           CLEAR     61  52  72 CALM      30.07S                  
PRINEVILLE     PTCLDY    61  52  72 S5        30.05F                  
KLAMATH FALLS  CLEAR     53  48  83 CALM      30.12F                  
LAKEVIEW       CLEAR     47  36  65 CALM      30.17S                  
HERMISTON      CLEAR     75  51  43 SW15      29.90S                  
PENDLETON      PTCLDY    73  48  41 SW9       29.96R                  
JOHN DAY       PTCLDY    68  48  48 W7        30.07S                  
MEACHAM        MOCLDY    54  46  74 CALM      30.08S                  
LA GRANDE      CLOUDY    73  48  41 W16       30.00S                  
BAKER CITY     CLOUDY    64  49  57 S6        30.02S                  
BURNS          MOCLDY    65  35  33 NW8       30.07S                  
ROME             N/A     69  28  21 SW10      30.03S                  
ONTARIO        PTCLDY    67  50  54 W8        29.90S                  
$$